Location: Stockholm
(59.3293°N, 18.0686°E)
Time: 12:53:52
(UTC+02:00)

ISS - Pass Details

Date: 01 April 2019
Orbit: 408 x 410 km, 51.6° (Epoch: 24 April)

Event Time Altitude Azimuth Distance (km) Brightness Sun altitude
Rises 21:46:40 0° 263° (W) 2,340 0.7 -16.4°
Reaches altitude 10° 21:50:01 10° 227° (SW) 1,475 -0.9 -16.7°
Maximum altitude 21:51:02 11° 208° (SSW) 1,406 -1.2 -16.8°
Enters shadow 21:51:09 11° 206° (SSW) 1,407 -1.3 -16.8°
